Flag for Liechtenstein Weather past 2 weeks in Vaduz, Liechtenstein

Now
66 °F

Scattered clouds.


Feels Like: 66 °F
Forecast: 50 / 72 °F
Wind: 8 mph from Northwest

Location: Vaduz

Current Time: Oct 2, 2014 at 3:03:08 PM

Latest Report: Oct 2, 2014 at 2:00 PM


Visibility: 4 mi

Pressure: 30.29 "Hg

Humidity: 67%

Dew point: 55 °F

Location of VaduzLocation

Historic Weather in Vaduz — Graph

°F

Vaduz temperature yesterday

Maximum temperature yesterday: 64 °F (at 12:00 PM)
Minimum temperature yesterday: 54 °F (at 10:00 PM)
Average temperature yesterday: 58 °F

Past Weeks' High & Low Weather Summary

 TemperatureHumidityPressure
High78 °F (Sep 18, 2:00 PM)100% (Oct 2, 8:00 AM)30.40 "Hg (Oct 2, 8:00 AM)
Low44 °F (Sep 24, 3:00 AM)33% (Sep 18, 2:00 PM)29.80 "Hg (Sep 17, 4:00 PM)
Average59 °F76%30.15 "Hg
* Reported Sep 17 1:00 PM — Oct 2 1:00 PM, Vaduz, Weather by CustomWeather, © 2014

Note: Actual official high and low records may vary slightly from our data, if they occured in-between our weather recording intervals... More about our weather records

Advertising

Vaduz weather history for previous 24 hours

 ConditionsComfort  
Time TempWeatherWind HumidityBarometerVisibility
1:00 PM
Oct 2
65 °FMild.5 mph66%30.31 "HgN/A
12:00 PM63 °FMild.2 mph73%30.33 "HgN/A
11:00 AM59 °FFog.1 mph85%30.36 "Hg2 mi
10:00 AM55 °FCool.No wind93%30.38 "HgN/A
9:00 AM51 °FCool.No wind100%30.40 "HgN/A
8:00 AM49 °FFog.No wind100%30.40 "Hg0 mi
7:00 AM49 °FCool.1 mph97%30.39 "HgN/A
6:00 AM51 °FCool.No wind99%30.38 "HgN/A
5:00 AM52 °FLow clouds.No wind98%30.37 "Hg3 mi
4:00 AM56 °FCool.5 mph88%30.36 "HgN/A
3:00 AM56 °FCool.5 mph90%30.37 "HgN/A
2:00 AM55 °FFog.2 mph96%30.38 "Hg6 mi
1:00 AM56 °FCool.No wind96%30.38 "HgN/A
12:00 AM57 °FCool.6 mph90%30.37 "HgN/A
11:00 PM
Oct 1
54 °FFog.3 mph93%30.38 "Hg6 mi
10:00 PM54 °FCool.No wind97%30.37 "HgN/A
9:00 PM54 °FCool.No wind98%30.35 "HgN/A
8:00 PM57 °FFog.No wind96%30.33 "Hg6 mi
7:00 PM57 °FCool.No wind98%30.32 "HgN/A
6:00 PM61 °FCool.No wind94%30.30 "HgN/A
5:00 PM63 °FOvercast.No wind90%30.29 "Hg4 mi
4:00 PM62 °FMild.No wind88%30.29 "HgN/A
3:00 PM63 °FMild.1 mph87%30.30 "HgN/A
Weather by CustomWeather, © 2014

See weather overviewHow to use our weather pages